Location: Azul
(36.7830°S, 59.8500°W)
Time: 00:04:20
(UTC-03:00)

CUBEBUG 2 - Pass Details

Date: 29 October 2021
Orbit: 584 x 697 km, 97.7° (Epoch: 30 November)

Event Time Altitude Azimuth Distance (km) Brightness Sun altitude
Exits shadow 03:53:25 73° 285° (WNW) 648 ? -22.6°
Maximum altitude 03:53:27 73° 282° (WNW) 648 ? -22.6°
Drops below altitude 10° 03:57:51 10° 196° (SSW) 2,024 ? -22.0°
Sets 04:00:06 0° 194° (SSW) 2,958 ? -21.6°
